Regional Weather Roundup
Issued by NWS Little Rock, AR

Home | Current Version | Previous Version | Graphics & Text | Print | Product List | Glossary On
Versions: 1 2 3 4 5 6 7 8 9 10 11 12 13 14 15 16 17 18 19 20 21 22 23 24 25 26 27 28 29 30 31 32 33 34 35 36 37 38 39 40 41 42 43 44 45 46 47 48 49 50
000
ASUS44 KLZK 270205
RWRLZK

WEATHER ROUNDUP FOR ARKANSAS
NATIONAL WEATHER SERVICE LITTLE ROCK AR
800 PM CST MON JAN 26 2015

NOTE: "FAIR" INDICATES FEW OR NO CLOUDS BELOW 12,000 FEET WITH NO
SIGNIFICANT WEATHER AND/OR OBSTRUCTIONS TO VISIBILITY.

ARZ001-003-010-029-270300-
NORTHWEST ARKANSAS

CITY           SKY/WX    TMP DP  RH WIND       PRES   REMARKS
FAYETTEVILLE   CLEAR     42  34  73 CALM      30.02S
FORT SMITH     CLEAR     47  36  65 CALM      30.01S
HARRISON       CLEAR     51  34  52 NW7       29.98R
BENTONVILLE    CLEAR     46  32  57 SW5       30.02R
ROGERS         CLEAR     50  34  54 SW6       30.02R
SILOAM SPGS    CLEAR     48  30  49 SW3       30.03R
HIGHFILL       CLEAR     44  33  65 SW7       30.01R
SPRINGDALE     CLEAR     50  34  53 SW3       30.02F
$$

ARZ004-005-016-270300-
NORTH CENTRAL ARKANSAS

CITY           SKY/WX    TMP DP  RH WIND       PRES   REMARKS
BATESVILLE     CLEAR     48  30  49 W3        29.96R
FLIPPIN        CLEAR     52  32  46 W5        29.98R
MTN HOME       CLEAR     51  34  52 CALM      29.97R
$$

ARZ040-041-270300-
WEST CENTRAL ARKANSAS

CITY           SKY/WX    TMP DP  RH WIND       PRES   REMARKS
MENA           CLEAR     59  37  44 W7        30.03R
MOUNT IDA      CLEAR     51  35  54 NW3       29.99R
$$

ARZ009-017-025-026-028-270300-
NORTHEAST ARKANSAS

CITY           SKY/WX    TMP DP  RH WIND       PRES   REMARKS
JONESBORO      CLEAR     43  35  73 SW7       29.94S
NEWPORT        CLEAR     45  33  62 SW9       29.96S
WALNUT RIDGE   CLEAR     41  34  75 S8        29.93S
BLYTHEVILLE    CLEAR     39  33  79 CALM      29.95S
$$

ARZ022-023-033-042-044-270300-
CENTRAL ARKANSAS

CITY           SKY/WX    TMP DP  RH WIND       PRES   REMARKS
LITTLE ROCK    CLEAR     51  32  48 W6        30.00R
N LITTLE ROCK  CLEAR     54  37  53 W6        30.00R
JACKSONVILLE   CLEAR     45  34  64 W6        29.98R
SEARCY         CLEAR     46  32  58 CALM      30.00R
HOT SPRINGS    CLEAR     53  35  50 NW3       30.02R
RUSSELLVILLE   CLEAR     42  35  76 CALM      29.99S
CLINTON        FAIR      41  32  70 CALM      30.01R
$$

ARZ036-270300-
EAST ARKANSAS

CITY           SKY/WX    TMP DP  RH WIND       PRES   REMARKS
WEST MEMPHIS   CLEAR     39  34  82 S6        29.97R
$$

ARZ050-053-066-070-073-270300-
SOUTHWEST ARKANSAS

CITY           SKY/WX    TMP DP  RH WIND       PRES   REMARKS
ARKADELPHIA    FAIR      46  39  76 CALM      30.03R
CAMDEN         CLEAR     46  32  57 CALM      30.03S
TEXARKANA      CLEAR     51  36  56 SW7       30.04F
EL DORADO      CLEAR     50  35  56 SW6       30.04R
DE QUEEN       CLEAR     44  37  76 E3        30.03R
$$

ARZ056-057-069-270300-
SOUTHEAST ARKANSAS

CITY           SKY/WX    TMP DP  RH WIND       PRES   REMARKS
PINE BLUFF     CLEAR     48  33  56 SW3       30.01R
STUTTGART      CLEAR     45  34  65 SW8       29.99S
MONTICELLO     CLEAR     51  34  52 W6        30.02R

$$





USA.gov is the U.S. government's official web portal to all federal, state and local government web resources and services.